{"data":{"norad_id":59768,"intl_designator":"2024-091R","name":"STARLINK-31826","alt_names":[],"object_type":"PAYLOAD","status":"ACTIVE","operator":null,"country":"US","launch_date":"2024-05-14","launch_site_code":"AFWTR","launch_vehicle":null,"mission":null,"orbit_class":"UNKNOWN","rcs_meters":null,"size_class":null,"mass_kg":null,"dimensions":null,"purposes":["comms"],"wikipedia_slug":null,"has_3d_model":false,"image_url":null,"decayed_at":null,"tle_current":{"epoch":"2026-05-25T01:36:49.809888Z","epoch_age_seconds":72425,"freshness":"FRESH","line1":"1 59768U 24091R   26145.06724317  .00081817  00000+0  19769-2 0  9997","line2":"2 59768  53.1574  29.5935 0006762 135.9689 224.1856 15.40458624114730","mean_motion":15.40458624,"eccentricity":0.0006762,"inclination_deg":53.1574,"raan_deg":29.5935,"arg_perigee_deg":135.9689,"mean_anomaly_deg":224.1856,"bstar":0.0019769,"rev_number":11473,"period_min":93.478654834679,"perigee_km":440.14113889445,"apogee_km":449.36841773545,"semimajor_km":6822.891778315,"source":"CELESTRAK","updated_at":"2026-05-25T13:38:19.058979Z"}}}